Schedule Details


Flight Number: CTN457
Departure: Brussels National (EBBR) at 09:45
Arrival: Franjo Tudman (LDZA) at 11:35
Route: SPI UL607 PELIX UZ210 LIRSU UZ315 RIDAR UZ738 MUN UM867 VAROB DCT PIKIT DCT ARGOM

Weather Information
EBBR 112320Z 18002KT CAVOK 10/09 Q1011 NOSIG
LDZA 112330Z 26009KT 230V300 CAVOK 18/10 Q1007 NOSIG
Schedule Frequency

Route Map